EW9559 Weather Reports


Display with metric or nautical units.
time (UTC)temp
F
wind
direction
speed
MPH
gust
MPH
rain 1hr
in
rain 24hr
in
rain mn
in
humidity
%
barometer
mb
20260507151548 54 274 1.0 9.0 0.00 0.00 0.00 74 1022.9
20260507144532 52 271 0.0 4.0 0.00 0.00 0.00 78 1023.0
20260507143031 51 259 1.0 6.0 0.00 0.00 0.00 80 1023.0
20260507141532 51 259 1.0 8.0 0.00 0.00 0.00 80 1022.8
20260507134532 51 255 1.0 6.0 0.00 0.00 0.00 80 1022.5
20260507133028 51 266 1.0 7.0 0.00 0.00 0.00 81 1022.5
20260507131614 51 265 1.0 7.0 0.00 0.00 0.00 81 1022.5
20260507130026 51 261 0.0 6.0 0.00 0.00 0.00 82 1022.4
20260507123029 51 265 1.0 5.0 0.00 0.00 0.00 82 1022.4
20260507121530 51 260 1.0 6.0 0.00 0.00 0.00 82 1022.4
20260507120034 51 234 0.0 5.0 0.00 0.00 0.00 82 1022.4
20260507114534 51 238 1.0 4.0 0.00 0.00 0.00 82 1022.3
20260507111530 52 237 1.0 8.0 0.00 0.00 0.00 81 1022.1
20260507110028 52 247 1.0 6.0 0.00 0.00 0.00 81 1022.0
20260507104532 52 239 1.0 8.0 0.00 0.00 0.00 81 1021.9
20260507103032 53 238 2.0 8.0 0.00 0.00 0.00 81 1022.1
20260507101537 53 246 1.0 8.0 0.00 0.00 0.00 82 1022.1
20260507100039 53 244 1.0 8.0 0.00 0.00 0.00 82 1022.1
20260507094526 53 250 1.0 6.0 0.00 0.00 0.00 82 1022.2
20260507093032 53 248 1.0 8.0 0.00 0.00 0.00 82 1022.2
20260507091529 53 254 2.0 9.0 0.00 0.00 0.00 82 1022.2
20260507090031 53 243 1.0 9.0 0.00 0.00 0.00 81 1022.3
20260507084529 54 252 1.0 6.0 0.00 0.00 0.00 81 1022.3
20260507083033 54 264 1.0 6.0 0.00 0.00 0.00 80 1022.3
20260507081533 54 259 1.0 7.0 0.00 0.00 0.00 80 1022.3
20260507080030 55 252 2.0 10.0 0.00 0.00 0.00 80 1022.3
20260507074531 55 249 2.0 9.0 0.00 0.00 0.00 80 1022.3
20260507073032 55 250 2.0 6.0 0.00 0.00 0.00 80 1022.5
20260507071531 56 247 3.0 11.0 0.00 0.00 0.00 80 1022.5
20260507070105 56 249 2.0 8.0 0.00 0.00 0.00 80 1022.5
20260507064646 56 245 2.0 8.0 0.00 0.00 0.00 80 1022.6
20260507063031 56 233 2.0 9.0 0.00 0.00 0.00 80 1022.6
20260507061604 56 244 1.0 7.0 0.00 0.00 0.00 80 1022.6
20260507060031 57 250 1.0 5.0 0.00 0.00 0.00 79 1022.6
20260507054530 57 252 0.0 4.0 0.00 0.00 0.00 79 1022.8
20260507053030 57 243 1.0 6.0 0.00 0.00 0.00 79 1022.9
20260507051529 58 246 1.0 6.0 0.00 0.00 0.00 79 1022.9
20260507050103 58 246 1.0 6.0 0.00 0.00 0.00 78 1022.9
20260507044530 58 255 1.0 7.0 0.00 0.00 0.00 78 1022.9
20260507043030 58 257 0.0 5.0 0.00 0.00 0.00 77 1022.8
20260507041530 59 260 1.0 7.0 0.00 0.00 0.00 75 1022.7
20260507040105 59 248 0.0 5.0 0.00 0.00 0.00 73 1022.5
20260507034607 60 254 0.0 5.0 0.00 0.00 0.00 70 1022.4
20260507033030 61 270 0.0 3.0 0.00 0.00 0.00 66 1022.2
20260507031646 62 252 0.0 2.0 0.00 0.00 0.00 63 1022.0
20260507024530 64 273 0.0 6.0 0.00 0.00 0.00 58 1021.8
20260507023030 64 264 0.0 5.0 0.00 0.00 0.00 57 1021.8
20260507021539 66 263 0.0 4.0 0.00 0.00 0.00 55 1021.7
20260507014528 67 261 0.0 5.0 0.00 0.00 0.00 53 1021.6
20260507013107 68 264 1.0 6.0 0.00 0.00 0.00 53 1021.7
20260507011604 68 276 0.0 4.0 0.00 0.00 0.00 52 1021.7
20260507010030 69 265 0.0 3.0 0.00 0.00 0.00 52 1021.8
20260507004529 69 257 1.0 7.0 0.00 0.00 0.00 51 1021.7
20260507003032 70 265 0.0 7.0 0.00 0.00 0.00 52 1021.6
20260507001530 69 263 1.0 7.0 0.00 0.00 0.00 52 1021.5
20260507000029 67 272 0.0 6.0 0.00 0.00 0.00 56 1021.5
20260506234604 65 261 0.0 8.0 0.00 0.00 0.00 58 1021.4
20260506231529 65 270 1.0 12.0 0.00 0.00 0.00 58 1021.3
20260506224551 66 266 1.0 10.0 0.00 0.00 0.00 57 1021.0
20260506223030 68 277 0.0 10.0 0.00 0.00 0.00 55 1021.0
20260506220154 69 280 1.0 7.0 0.00 0.00 0.00 56 1021.0
20260506214532 69 275 1.0 9.0 0.00 0.00 0.00 57 1021.2
20260506211529 69 266 0.0 8.0 0.00 0.00 0.00 55 1021.5
20260506210032 70 272 0.0 7.0 0.00 0.00 0.00 55 1021.7
20260506204531 70 272 0.0 5.0 0.00 0.00 0.00 55 1021.6
20260506203105 69 270 1.0 7.0 0.00 0.00 0.00 56 1021.6
20260506201546 69 268 0.0 5.0 0.00 0.00 0.00 56 1021.8
20260506194533 68 267 2.0 10.0 0.00 0.00 0.00 57 1021.7
20260506193029 68 253 2.0 9.0 0.00 0.00 0.00 58 1021.8
20260506190031 67 249 1.0 12.0 0.00 0.00 0.00 61 1021.9
20260506184604 67 247 1.0 7.0 0.00 0.00 0.00 63 1021.9
20260506183107 67 258 1.0 6.0 0.00 0.00 0.00 64 1022.0
20260506181529 66 258 1.0 7.0 0.00 0.00 0.00 65 1021.9
20260506180029 66 257 2.0 9.0 0.00 0.00 0.00 65 1022.0
20260506174529 66 261 1.0 9.0 0.00 0.00 0.00 66 1022.1
20260506173028 65 250 1.0 9.0 0.00 0.00 0.00 68 1022.0
20260506171531 64 244 1.0 11.0 0.00 0.00 0.00 68 1021.9
20260506164529 64 275 1.0 7.0 0.00 0.00 0.00 67 1021.9
20260506163107 61 264 0.0 4.0 0.00 0.00 0.00 72 1022.0
20260506161531 62 239 1.0 7.0 0.00 0.00 0.00 72 1022.3
20260506160114 62 252 1.0 7.0 0.00 0.00 0.00 72 1022.2
20260506154531 61 262 1.0 7.0 0.00 0.00 0.00 73 1022.0
20260506153108 61 266 0.0 6.0 0.00 0.00 0.00 73 1022.0